Youngstown, OH

4:45 AM EST on December 11, 2019 (GMT -0500)
Youngstown-Warren Regional

Weather History for KYNG - September, 2019

Change the Weather History Date:

Tuesday, September 24, 2019

  Actual Average Record
Temperature  
Mean Temperature 62 °F 59 °F  
Max Temperature 73 °F 69 °F 91 °F (1936)
Min Temperature 51 °F 49 °F 32 °F (1995)
Degree Days  
Heating Degree Days 3 7  
Month to date heating degree days 16 96  
Since 1 July heating degree days 22 134  
Cooling Degree Days 0 1  
Month to date cooling degree days 85 46  
Year to date cooling degree days 749 532  
Growing Degree Days 12 (Base 50)    
Moisture  
Dew Point 51 °F    
Average Humidity 71    
Maximum Humidity 93    
Minimum Humidity 46    
Precipitation  
Precipitation 0.00 in 0.12 in 0.70 in (1977)
Month to date precipitation 4.51 3.04  
Year to date precipitation 39.03 29.26  
Snow  
Snow 0.00 in 0.00 in - ()
Month to date snowfall 0.0 0.0  
Since 1 July snowfall 0.0 0.0  
Since 1 September snowfall 0.0 0.0  
Snow Depth 0.00 in    
Sea Level Pressure  
Sea Level Pressure 29.95 in    
Wind  
Wind Speed 5 mph ()    
Max Wind Speed 13 mph    
Max Gust Speed 18 mph    
Visibility 10.0 miles    
Events      
T = Trace of Precipitation, MM = Missing Value Source: Averaged Metar Reports

Daily Weather History Graph

Daily Weather History Graph

Search for Another Location

Airport or City:

Astronomy

Sep. 24, 2019 Rise Set
Actual Time 7:12 AM EDT 7:16 PM EDT
Civil Twilight 6:44 AM EDT 7:44 PM EDT
Nautical Twilight 6:12 AM EDT 8:16 PM EDT
Astronomical Twilight 5:39 AM EDT 8:49 PM EDT
Moon 1:51 AM EDT (9/24) 5:04 PM EDT (9/24)
Length of Visible Light 12h 59m
Length of Day
12h 04m
Waning Crescent, 23% of the Moon is Illuminated
Sep 24
Waning Crescent
Sep 28
New
Oct 5
First Quarter
Oct 13
Full
Oct 21
Last Quarter

Hourly Weather History & Observations

Time (EDT) Temp. Dew Point Humidity Pressure Visibility Wind Dir Wind Speed Gust Speed Precip Events Conditions
12:51 AM 57.9 °F 51.1 °F 78% 29.93 in 10.0 mi West 4.6 mph - N/A   Clear
1:51 AM 57.9 °F 50.0 °F 75% 29.93 in 10.0 mi Calm Calm - N/A   Clear
2:51 AM 57.0 °F 51.1 °F 81% 29.93 in 10.0 mi West 4.6 mph - N/A   Partly Cloudy
3:51 AM 55.9 °F 51.1 °F 84% 29.93 in 10.0 mi WSW 3.5 mph - N/A   Partly Cloudy
4:51 AM 54.0 °F 51.1 °F 90% 29.94 in 10.0 mi West 6.9 mph - N/A   Partly Cloudy
5:51 AM 55.9 °F 52.0 °F 87% 29.95 in 10.0 mi West 6.9 mph - N/A   Partly Cloudy
6:51 AM 55.0 °F 51.1 °F 86% 29.96 in 10.0 mi West 6.9 mph - N/A   Partly Cloudy
7:51 AM 55.9 °F 52.0 °F 87% 29.98 in 10.0 mi WSW 5.8 mph - N/A   Partly Cloudy
8:51 AM 59.0 °F 54.0 °F 83% 29.98 in 10.0 mi West 6.9 mph - N/A   Partly Cloudy
9:51 AM 63.0 °F 55.0 °F 75% 30.00 in 10.0 mi WNW 8.1 mph - N/A   Scattered Clouds
10:17 AM 64.9 °F 55.0 °F 70% 30.00 in 10.0 mi NW 8.1 mph - N/A   Mostly Cloudy
10:51 AM 64.0 °F 54.0 °F 70% 30.00 in 10.0 mi NW 10.4 mph - N/A   Mostly Cloudy
11:51 AM 68.0 °F 53.1 °F 59% 29.99 in 10.0 mi West 10.4 mph - N/A   Mostly Cloudy
12:38 PM 69.1 °F 52.0 °F 54% 29.99 in 10.0 mi NNW 5.8 mph - N/A   Mostly Cloudy
12:51 PM 69.1 °F 51.1 °F 53% 29.97 in 10.0 mi NW 9.2 mph 16.1 mph N/A   Mostly Cloudy
1:51 PM 68.0 °F 48.9 °F 50% 29.96 in 10.0 mi WNW 5.8 mph - N/A   Mostly Cloudy
2:51 PM 72.0 °F 50.0 °F 46% 29.94 in 10.0 mi NW 11.5 mph - N/A   Mostly Cloudy
3:51 PM 69.1 °F 48.0 °F 47% 29.94 in 10.0 mi WNW 9.2 mph - N/A   Mostly Cloudy
4:51 PM 70.0 °F 48.9 °F 47% 29.94 in 10.0 mi West 6.9 mph - N/A   Mostly Cloudy
5:51 PM 70.0 °F 48.0 °F 46% 29.94 in 10.0 mi WNW 5.8 mph - N/A   Mostly Cloudy
6:51 PM 66.0 °F 50.0 °F 56% 29.94 in 10.0 mi NNW 5.8 mph - N/A   Mostly Cloudy
7:51 PM 57.0 °F 51.1 °F 81% 29.94 in 10.0 mi Calm Calm - N/A   Mostly Cloudy
8:51 PM 55.0 °F 52.0 °F 89% 29.94 in 10.0 mi Calm Calm - N/A   Mostly Cloudy
9:51 PM 53.1 °F 50.0 °F 89% 29.94 in 10.0 mi Calm Calm - N/A   Scattered Clouds
10:51 PM 54.0 °F 48.0 °F 80% 29.94 in 10.0 mi South 3.5 mph - N/A   Scattered Clouds
11:51 PM 53.1 °F 48.0 °F 83% 29.90 in 10.0 mi South 5.8 mph - N/A   Partly Cloudy